Regional Weather Roundup
Issued by NWS Wilmington, NC

Home | Current Version | Previous Version | Text Only | Print | Product List | Glossary On
Versions: 1 2 3 4 5 6 7 8 9 10 11 12 13 14 15 16 17 18 19 20 21 22 23 24 25 26 27 28 29 30 31 32 33 34 35 36 37 38 39 40 41 42 43 44 45 46 47 48 49 50
000
ASUS42 KILM 300210
RWRILM
RWRILM
REGIONAL HOURLY WEATHER ROUNDUP
NATIONAL WEATHER SERVICE WILMINGTON NC
1000 PM EDT TUE JUL 29 2014

NOTE: "FAIR" INDICATES FEW OR NO CLOUDS BELOW 12,000 FEET WITH NO
SIGNIFICANT WEATHER AND/OR OBSTRUCTIONS TO VISIBILITY.

...............WFO WILMINGTON COUNTY WARNING AREA...............

......COASTAL NC AND SC COUNTIES......

CITY           SKY/WX    TMP DP  RH WIND       PRES   REMARKS
WILMINGTON     MOCLDY    73  70  90 NE5       29.97R
SOUTHPORT      CLEAR     76  70  81 CALM      29.96R
N MYRTLE BEACH CLEAR     75  71  87 CALM      29.95R
MYRTLE BEACH   CLEAR     75  70  83 SW6       29.96R

......INLAND NC AND SC COUNTIES.......

CITY           SKY/WX    TMP DP  RH WIND       PRES   REMARKS
LUMBERTON      CLEAR     73  66  78 CALM      29.96R
ELIZABETHTOWN  CLEAR     73  64  73 CALM      29.97R
WHITEVILLE     PTCLDY    74  66  77 CALM      29.96R
FLORENCE       CLEAR     74  61  63 CALM      29.96R
DARLINGTON     CLEAR     72  63  73 NE3       29.98R

....................REST OF NORTH CAROLINA......................

.........EASTERN NC.........

CITY           SKY/WX    TMP DP  RH WIND       PRES   REMARKS
CAPE HATTERAS  PTCLDY    75  65  70 E8        29.98R
JACKSONVILLE   MOCLDY    70  63  78 CALM      29.97R
MOREHEAD CITY  LGT RAIN  77  68  73 NE7       29.97R
KENANSVILLE    PTCLDY    69  63  80 CALM      29.98R
NEW BERN       CLEAR     75  64  68 E5        29.98R
ELIZABETH CITY CLEAR     70  63  78 E5        29.99R

.........CENTRAL NC.........

CITY           SKY/WX    TMP DP  RH WIND       PRES   REMARKS
RALEIGH DURHAM PTCLDY    68  61  78 CALM      29.99R
ROCKY MOUNT    CLEAR     67  61  81 CALM      29.98R
ROANOKE RAPIDS NOT AVBL
FAYETTEVILLE   CLEAR     73  62  68 NE3       29.97R
HOFFMAN        CLEAR     71  63  78 N1        29.99R

.........WESTERN NC.........

CITY           SKY/WX    TMP DP  RH WIND       PRES   REMARKS
CHARLOTTE      PTCLDY    72  56  57 CALM      29.99R
GREENSBORO     PTCLDY    72  57  59 CALM      29.99R
HICKORY        NOT AVBL
BOONE          NOT AVBL
ASHEVILLE      NOT AVBL

.....................REST OF SOUTH CAROLINA.....................

.........EASTERN SC.........

CITY           SKY/WX    TMP DP  RH WIND       PRES   REMARKS
CHARLESTON     PTCLDY    80  67  64 SE5       29.95R
BEAUFORT MCAS  CLEAR     79  70  74 CALM      29.95R
HILTON HEAD    NOT AVBL

.........CENTRAL SC.........

CITY           SKY/WX    TMP DP  RH WIND       PRES   REMARKS
COLUMBIA       PTCLDY    82  56  40 E3        29.96R
ORANGEBURG     PTCLDY    74  66  76 CALM      29.96R
SUMTER SHAW    CLEAR     73  64  74 NE5       29.95R

.........WESTERN SC.........

CITY           SKY/WX    TMP DP  RH WIND       PRES   REMARKS
GREENVILLE     NOT AVBL
ROCK HILL      CLEAR     67  62  84 CALM      30.00R
ANDERSON       CLEAR     72  55  55 CALM      29.99R
CLEMSON        NOT AVBL
GREENWOOD      CLEAR     70  58  65 CALM      29.99R


...................COASTAL AND OFFSHORE REPORTS..................

................LOCAL PIERS AND NC RESERVE................


STATION/POSITION TIME  SKY/WX   TEMP    WIND        PRES    VSBY
                                AIR SEA DIR/SP/G
                 (UTC)          (F)     (DEG/KT/KT) (MB)    (MI)
JOHNY MRCER PIER 0200            74 84   20/ 11/ 14 1013.9S
NC RESRV MASNBRO 0100            79     160/  2     1013.0S
OCEAN CREST PIER 0200            79 85   50/  2/  3 1013.4R
SPRINGMAID  PIER 0200            81 83  140/  3/  5 1014.3R


................COASTAL AND OFFSHORE BUOYS................


STATION/POSITION TIME  SKY/WX   TEMP    WIND        PRES    VSBY
                                AIR SEA DIR/SP/G
                 (UTC)          (F)     (DEG/KT/KT) (MB)    (MI)
DIMNDSHOAL 41025 0200                   VRB 16/ 19  1014.4R
WVE H/P(F/S)=  4/ 8 WND WVE H/P(F/S)=  3/ 7 SWL H/P/D(F/S/D)=  2/120/ 8

CAPE LOOKOUT     0100            77      60/ 15/ 16 1013.8R
ONSLOW BAY 41036 0200            79 81   80/ 12/ 14 1014.4R
WVE H/P(F/S)=  3/ 6 WND WVE H/P(F/S)=  2/ 4 SWL H/P/D(F/S/D)=  2/180/ 6

5 WRITEBCH 41038 0100            76 82  110/  4/  6   N/A
MASONBORO  41110 0200               82                N/A
WVE H/P(F/S)=  3/ 6 WND WVE H/P(F/S)=  3/ 6

WILM HARBR 41108 NOT AVBL
27WRITEBCH 41037 0100            76 82   90/  8/  8 1013.5R
FRYING PAN 41013 NOT AVBL
SUNST NRSH 41024 0100            81     180/  2/  4 1013.5R
CAPRS NRSH 41029 0100            81      CALM  /  4   N/A
EDISTO     41004 0200            81 84   40/  6/  8 1013.3R
WVE H/P(F/S)=  2/ 5 WND WVE H/P(F/S)=  2/ 4 SWL H/P/D(F/S/D)=  2/ 5



..........OFFSHORE BUOYS BEYOND 100 NM OFFSHORE...........
.....IN A TRIANGLE---HAT TO BERMUDA TO BAHAMAS TO HAT.....


STATION/POSITION TIME  SKY/WX   TEMP    WIND        PRES    VSBY
                                AIR SEA DIR/SP/G
                 (UTC)          (F)     (DEG/KT/KT) (MB)    (MI)
150E HAT   41001 NOT AVBL
W BERMUDA  41048 0125            82 82  180/ 17/ 19 1018.0
WVE H/P(F/S)=  6/ 8 WND WVE H/P(F/S)=  5/ 8 SWL H/P/D(F/S/D)=  2/ 70/15

ATLANTIC S 41049 0117            82 84  110/ 12/ 14 1022.0R
WVE H/P(F/S)=  4/ 8 WND WVE H/P(F/S)=  2/ 5 SWL H/P/D(F/S/D)=  3/110/ 8

E BAHAMAS  41046 0052            82 84  120/ 14/ 16 1018.9
WVE H/P(F/S)=  3/ 8 WND WVE H/P(F/S)=  3/ 5 SWL H/P/D(F/S/D)=  2/ 80/ 8

NE BAHAMAS 41047 0145            82 85  160/ 10/ 12 1018.3R
WVE H/P(F/S)=  4/ 8 WND WVE H/P(F/S)=  2/ 4 SWL H/P/D(F/S/D)=  3/120/ 8

120E CANVRL41010 0200            83 84  230/ 12/ 14 1014.3S
WVE H/P(F/S)=  4/ 5 WND WVE H/P(F/S)=  3/ 5 SWL H/P/D(F/S/D)=  2/280/ 6


END



USA.gov is the U.S. government's official web portal to all federal, state and local government web resources and services.